Notices

What's New in latest Release from April 7th, 2021:

- Updated Glossary, including Speed of Maximum Gust, and Total Hourly Precipitation

- Updated national and regional climate services offices contacts and prices information

- Addition of station inventory lists for 1981-2010, 1971-2000, and 1961-1990 Normals.

If you haven't already, please take our survey and provide feedback about our website: https://eccc.sondage-survey.ca/f/LanguageSelection.aspx?s=442ca660-fcf1-47c0-95a9-59707d6fd709

Hourly Data Report for January 27, 2012

HALIFAX STANFIELD INT'L A
NOVA SCOTIA

44°52'48.060" N
63°30'00.050" W
145.40 m
8202250
71395
YHZ

Download Data

Hourly Data (January 2012)
Hourly Data Report for January 27, 2012
TIME
LST
Temp Definition
°C
Dew Point Definition
°C
Rel Hum Definition
%
Precip. Amount Definition
mm

Wind Dir Definition
10's deg

Wind Spd Definition
km/h
Visibility Definition
km
Stn Press Definition
kPa
Hmdx Definition


Wind Chill Definition


Weather Definition


00:00 -7.3 -11.0 75   5 4 24.1 100.21   -9 Cloudy
01:00 -7.4 -10.5 78   8 6 24.1 100.17   -11 Mostly Cloudy
02:00 -7.5 -10.1 82     0 24.1 100.23     Cloudy
03:00 -7.2 -9.9 81   19 6 24.1 100.28   -10 Cloudy
04:00 -7.1 -10.3 78   13 4 24.1 100.24   -9 Cloudy
05:00 -6.7 -9.8 79   15 6 24.1 100.25   -10 Cloudy
06:00 -6.8 -9.6 80   13 9 24.1 100.24   -11 Cloudy
07:00 -6.5 -9.0 82   14 9 24.1 100.27   -11 Cloudy
08:00 -6.2 -9.7 76   11 13 24.1 100.25   -12 Cloudy
09:00 -5.8 -10.2 71   11 13 24.1 100.17   -11 Cloudy
10:00 -5.1 -9.9 69   12 19 24.1 100.14   -12 Cloudy
11:00 -4.8 -8.8 74   12 19 2.0 100.07   -11 Snow
12:00 -3.7 -6.8 79   13 22 24.1 99.91   -10 Snow
13:00 -2.9 -5.5 82   13 24 2.0 99.74   -10 Snow
14:00 -2.9 -4.4 89   12 30 2.0 99.54   -10 Snow
15:00 -2.6 -3.8 91   12 35 8.0 99.38   -10 Freezing Rain,Ice Pellets,Fog
16:00 -2.0 -3.0 93   12 35 4.8 99.20   -10 Freezing Rain,Fog
17:00 -1.4 -2.1 95   12 33 4.8 99.02   -9 Freezing Rain,Fog
18:00 -0.8 -1.4 96   12 30 4.8 98.85   -8 Freezing Rain,Fog
19:00 0.0 -0.4 97   12 33 4.8 98.66   -7 Rain,Fog
20:00 0.4 0.0 97   12 35 4.8 98.41     Rain,Fog
21:00 0.6 0.1 96   12 43 4.8 98.10     Rain,Fog
22:00 1.0 0.6 97   11 43 4.8 97.82     Rain,Fog
23:00 1.6 1.4 99   11 46 3.2 97.49     Moderate Rain,Fog

Notes on Data Quality.

Legend

  • E = Estimated
  • M = Missing
  • NA = Not Available*
  • [empty] = Indicates an unobserved value
Date modified: